This demonstration page uses our WeatherBlox Daily Observations layout. Learn more.

Left ArrowRight Arrow

Hourly Observations for May 5, 2015

Temp ( °F °C ) Dew Point ( °F °C ) Humidity (%) Winds ( mph kmh ) Pressure ( in mb ) Visibility ( mi km ) Precip ( " mm )
12:20 am 00:20 Cloudy 66 19 61 16 83 83 ESE 13 20 29.77 1008 10 16 0.00 0.00
12:53 am 00:53 Cloudy 67 19.4 61 16.1 81 81 ESE 13 20 29.73 1007 10 16 0.00 0.00
1:53 am 01:53 Cloudy 67 19.4 61 16.1 81 81 SE 17 28 29.68 1005 10 16 0.00 0.00
2:53 am 02:53 Cloudy 67 19.4 61 16.1 81 81 SE 15 24 29.68 1005 10 16 0.00 0.00
3:53 am 03:53 Cloudy 67 19.4 61 16.1 81 81 SE 18 30 29.67 1005 10 16 0.00 0.00
4:53 am 04:53 Cloudy 67 19.4 60 15.6 79 79 SE 20 31 29.66 1004 10 16 0.00 0.00
5:53 am 05:53 Partly Cloudy 67 19.4 60 15.6 79 79 SSE 17 28 29.68 1005 10 16 0.00 0.00
6:00 am 06:00 Mostly Cloudy 66 19 61 16 83 83 S 15 24 29.71 1006 10 16 0.00 0.00
6:53 am 06:53 Cloudy 66 18.9 60 15.6 81 81 SSW 10 17 29.72 1006 10 16 0.00 0.00
7:24 am 07:24 Mostly Cloudy 64 18 61 16 88 88 SW 7 11 29.74 1007 10 16 0.00 0.00
7:35 am 07:35 Partly Cloudy 64 17.8 60 15.6 87 87 SW 6 9 29.74 1007 9 14 0.00 0.00
7:53 am 07:53 Sunny 64 17.8 59 15 84 84 WSW 8 13 29.73 1007 10 16 0.00 0.00
8:19 am 08:19 Mostly Cloudy 64 17.8 59 15 84 84 NW 12 19 29.77 1008 10 16 0.00 0.00
8:53 am 08:53 Mostly Cloudy 64 17.8 54 12.2 70 70 NNE 13 20 29.77 1008 10 16 0.00 0.00
9:00 am 09:00 Partly Cloudy 64 18 54 12 68 68 N 12 19 29.77 1008 10 16 0.00 0.00
9:53 am 09:53 Sunny 67 19.4 55 12.8 66 66 N 9 15 29.78 1009 10 16 0.00 0.00
10:53 am 10:53 Sunny 71 21.7 56 13.3 59 59 WNW 8 13 29.79 1009 10 16 0.00 0.00
11:53 am 11:53 Sunny 74 23.3 54 12.2 50 50 WNW 6 9 29.79 1009 10 16 0.00 0.00
12:53 pm 12:53 Sunny 77 25 53 11.7 43 43 W 13 20 29.78 1009 10 16 0.00 0.00
1:53 pm 13:53 Sunny 79 26.1 51 10.6 38 38 W 16 26 29.75 1008 10 16 0.00 0.00
2:53 pm 14:53 Mostly Sunny 83 28.3 41 5 23 23 WSW 12 19 29.72 1006 10 16 0.00 0.00
3:53 pm 15:53 Sunny 83 28.3 34 1.1 17 17 W 15 24 29.70 1006 10 16 0.00 0.00
4:53 pm 16:53 Sunny 84 28.9 28 -2.2 13 13 W 15 24 29.68 1005 10 16 0.00 0.00
5:53 pm 17:53 Sunny 84 28.9 31 -0.6 15 15 W 10 17 29.67 1005 10 16 0.00 0.00
6:53 pm 18:53 Sunny 84 28.9 32 0 15 15 W 12 19 29.67 1005 10 16 0.00 0.00
7:53 pm 19:53 Sunny 81 27.2 34 1.1 18 18 W 8 13 29.67 1005 10 16 0.00 0.00
8:53 pm 20:53 Clear 74 23.3 42 5.6 32 32 W 6 9 29.70 1006 10 16 0.00 0.00
9:53 pm 21:53 Clear 71 21.7 45 7.2 39 39 Calm 29.73 1007 10 16 0.00 0.00
10:53 pm 22:53 Clear 71 21.7 53 11.7 53 53 SSE 9 15 29.75 1007 10 16 0.00 0.00
11:53 pm 23:53 Clear 68 20 58 14.4 70 70 SE 9 15 29.77 1008 10 16 0.00 0.00

Powered by AerisWeather